User: anonymous   Login
Location: Kuppenheim
(48.8299°N, 8.2568°E)
Time: 18:33:11
(UTC+00:00)
Language:

FALCON 9 DEB - Orbit

View from above orbital plane
View from above orbital plane
View from above satellite
View from above satellite

Ground track
Ground track

The orbit data is extracted from the following two-line orbital elements,

1 46087U 20055BN  21263.07271536  .00019979  00000-0  16939-3 0  9998
2 46087  53.0039  88.2240 0010238 177.1655 182.9421 15.69648614 68547
Epoch (UTC): 20 September 2021 01:44:42
Eccentricity: 0.0010238
inclination: 53.0039°
perigee height: 353 km
apogee height: 367 km
right ascension of ascending node: 88.2240°
argument of perigee: 177.1655°
revolutions per day: 15.69648614
mean anomaly at epoch: 182.9421°
orbit number at epoch: 6854

The dashed part of the orbit path shows where the satellite is in the earth's shadow,  

DLR